FALCON HEAVY R/B, 60134

Orbit data source: Space-Track

FALCON HEAVY R/B, 60134 is space debris in HEO originally from a launch on Tue, 25 Jun 2024 UTC launched from the Air Force Eastern Test Range (AFETR). Debris objects in space refer to the collection of defunct objects orbiting the Earth. Examples of debris include non-operational satellites, rocket bodies, and fragments generated from explosions, collisions, or faulty payload assembly.

Loading next visibility...
FALCON HEAVY R/B details
Identifier
60134, 2024-119B
Orbit
HEO
Last TLE update14 hours ago
Origin
Flag of USSpaceX (US)
ManufacturerSpaceX
MissionSpacecraft
Bus & MotorF9ST2, Unknown motor
Mass~4,000 kg wet, ~4,000 kg dry
Launch date (UTC)
2024-06-25 (5 months ago)
Launch vehicleUnknown
Launch site
Air Force Eastern Test Range (AFETR)
Object type
Payload
Rocket body
Debris
Shape & HBRCyl, Unknown HBR
Radar Cross Section49.816 m², Large (>1 m²)

Expand to show TLE details & history

TLE from 14 hours ago
0 FALCON HEAVY R/B
1 60134U 24119B   24325.78795227 -.00000100  00000-0  00000-0 0  9996
2 60134   4.6774  88.9800 3009495 192.2956 158.1749  1.51716007  2253
Epoch: 2024-11-20T18:54Z
Definitive object data (Epoch: 2024-11-20T18:54:39.076Z)
Latitude-0°
Longitude104.90226°
Altitude34,839.464 km
Speed2.623 km/s
True Right ascension05h 55m 22s
True Declination0° 00' 00"
Sunlit
Object was in daylight at TLE epoch
Visualization TLE readout
Latitude-1.64729°
Longitude84.27243°
Altitude32,539.902 km
Speed2.833 km/s
Apparent Right ascension04h 18m 40s
Apparent Declination-8° 32' 17"
Sunlit
Object is in daylight
Visualization observer readout
Local Sidereal Time06:16:15
Azimuth216.054° SW
Elevation34.442°
Doppler factor1
Orbital elements
Apogee altitude35,244.502 km
Perigee altitude15,987.317 km
Semi-major axis31,994.046 km
Eccentricity0.3009495
Inclination4.6774°
RAAN88.98°
Arg. of periapsis192.2956°
True anomaly167.62041°
Mean anomaly158.1749°
Eccentric anomaly163.16795°
Mean motion0.37926 °/min
BSTARUnknown
Orbital period949.21 mins
Loading maneuver chart data...
Loading historical data...
Loading historical data...
Loading historical data...
Loading historical data...
Loading historical data...
Loading historical data...
Loading historical data...
Other satellites on launch #119 in the year 2024 (2024-06-25 UTC)

FALCON HEAVY R/B Visibility forecast

Observer location: undefined°, undefined

Span
Click to sort rows by Start time (UTC) header in descending order
Start Az.
Max El. time (UTC)
Max El. Az.
Max El.
End time (UTC)
End Az.
666 mins2024-11-21 09:13:15.953Z216.042° SW2024-11-21 18:04:15.953Z192.679° SSW33.954°2024-11-21 20:19:15.953Z119.314° SE
|